Change the Weather History Date:

Saturday, February 2, 2013

  Actual Average (KN60) Record (KN60)
Temperature  
Mean Temperature 20 °F -  
Max Temperature 35 °F 22 °F 45 °F (2012)
Min Temperature 5 °F 3 °F -27 °F (2011)
Degree Days  
Heating Degree Days 45    
Moisture  
Dew Point 10 °F    
Average Humidity 78    
Maximum Humidity 93    
Minimum Humidity 67    
Precipitation  
Precipitation 0.75 in - - ()
Sea Level Pressure  
Sea Level Pressure 30.05 in    
Wind  
Wind Speed 10 mph (WNW)    
Max Wind Speed 36 mph    
Max Gust Speed 53 mph    
Visibility 8 miles    
Events Rain , Snow    
Averages and records for this station are not official NWS values.
T = Trace of Precipitation, MM = Missing Value Source: NWS Daily Summary

Daily Weather History Graph

Daily Weather History Graph

Search for Another Location

Airport or City:

Trip Planner

Search our weather history database for the weather conditions in past years. The results will help you decide how hot, cold, wet, or windy it might be!

Date:

Astronomy

Feb. 02, 2013 Rise Set
Actual Time 8:10 AM CST 5:50 PM CST
Civil Twilight 7:37 AM CST 6:23 PM CST
Nautical Twilight 7:01 AM CST 6:59 PM CST
Astronomical Twilight 6:25 AM CST 7:35 PM CST
Moon 12:28 AM CST (2/2) 10:50 AM CST (2/2)
Length of Visible Light 10h 45m
Length of Day
9h 40m
Waning Gibbous, 59% of the Moon is Illuminated
Feb 2
Waning Gibbous
Feb 3
Last Quarter
Feb 10
New
Feb 17
First Quarter
Feb 25
Full

Hourly Weather History & Observations

Time (CST) Temp. Windchill Dew Point Humidity Pressure Visibility Wind Dir Wind Speed Gust Speed Precip Events Conditions
12:15 AM 8.6 °F -4.7 °F -0.4 °F 67% 30.09 in 10.0 mi North 9.2 mph - N/A   Overcast
12:35 AM 6.8 °F -5.9 °F -0.4 °F 72% 30.10 in 10.0 mi North 8.1 mph - N/A   Overcast
12:55 AM 6.8 °F -6.9 °F -0.4 °F 72% 30.10 in 10.0 mi North 9.2 mph - N/A   Overcast
1:15 AM 6.8 °F -5.9 °F -0.4 °F 72% 30.09 in 9.0 mi North 8.1 mph - N/A Snow Light Snow
1:35 AM 6.8 °F -4.8 °F -0.4 °F 72% 30.10 in 10.0 mi North 6.9 mph - N/A   Mostly Cloudy
1:55 AM 6.8 °F -3.5 °F -0.4 °F 72% 30.10 in 8.0 mi NNW 5.8 mph - N/A Snow Light Snow
2:15 AM 5.0 °F -2.1 °F -0.4 °F 78% 30.09 in 7.0 mi NNE 3.5 mph - N/A Snow Light Snow
2:35 AM 5.0 °F -2.1 °F -0.4 °F 78% 30.09 in 5.0 mi NE 3.5 mph - N/A Snow Light Snow
2:55 AM 5.0 °F - -0.4 °F 78% 30.10 in 9.0 mi Calm Calm - N/A   Overcast
3:15 AM 5.0 °F -2.1 °F -0.4 °F 78% 30.09 in 10.0 mi NE 3.5 mph - N/A Snow Light Snow
3:35 AM 5.0 °F - -0.4 °F 78% 30.09 in 7.0 mi Calm Calm - N/A Snow Light Snow
3:55 AM 5.0 °F - -0.4 °F 78% 30.09 in 10.0 mi Calm Calm - N/A Snow Light Snow
4:15 AM 5.0 °F - -0.4 °F 78% 30.08 in 10.0 mi Calm Calm - N/A   Overcast
4:35 AM 5.0 °F - -0.4 °F 78% 30.07 in 10.0 mi Calm Calm - N/A   Overcast
4:55 AM 6.8 °F - -0.4 °F 72% 30.06 in 10.0 mi Calm Calm - N/A   Overcast
5:15 AM 6.8 °F - -0.4 °F 72% 30.07 in 10.0 mi Calm Calm - N/A   Overcast
5:35 AM 6.8 °F -0.1 °F -0.4 °F 72% 30.07 in 10.0 mi South 3.5 mph - N/A   Overcast
6:15 AM 6.8 °F -3.5 °F 1.4 °F 79% 30.04 in 10.0 mi SW 5.8 mph - N/A   Overcast
6:35 AM 8.6 °F 0.1 °F 1.4 °F 73% 30.03 in 10.0 mi SSW 4.6 mph - N/A   Overcast
6:55 AM 8.6 °F 0.1 °F 3.2 °F 79% 30.02 in 10.0 mi SW 4.6 mph - N/A   Overcast
7:15 AM 8.6 °F - 3.2 °F 79% 30.02 in 10.0 mi Calm Calm - N/A   Overcast
7:35 AM 10.4 °F - 5.0 °F 79% 30.01 in 10.0 mi Calm Calm - N/A Snow Light Snow
7:55 AM 10.4 °F - 5.0 °F 79% 29.99 in 8.0 mi Calm Calm - N/A Snow Light Snow
8:15 AM 10.4 °F - 5.0 °F 79% 29.99 in 10.0 mi Calm Calm - N/A   Overcast
8:35 AM 10.4 °F - 6.8 °F 85% 29.97 in 1.2 mi Calm Calm - 0.03 in Snow Light Snow
8:55 AM 12.2 °F - 6.8 °F 79% 29.96 in 3.0 mi Calm Calm - 0.14 in Snow Light Snow
9:15 AM 12.2 °F - 6.8 °F 79% 29.95 in 5.0 mi Calm Calm - 0.01 in Snow Light Snow
9:35 AM 12.2 °F 6.1 °F 8.6 °F 85% 29.94 in 1.8 mi West 3.5 mph - 0.06 in Snow Light Snow
9:55 AM 14.0 °F 8.2 °F 8.6 °F 79% 29.93 in 0.5 mi West 3.5 mph - 0.48 in Snow Snow
10:15 AM 15.8 °F 2.7 °F 14.0 °F 93% 29.91 in 2.5 mi WSW 11.5 mph - 0.07 in Snow Light Snow
10:35 AM 19.4 °F 6.6 °F 15.8 °F 86% 29.91 in 6.0 mi WSW 12.7 mph - 0.07 in Snow Light Snow
10:55 AM 23.0 °F 11.1 °F 19.4 °F 86% 29.92 in 10.0 mi West 12.7 mph - 0.07 in   Overcast
11:15 AM 28.4 °F 17.5 °F 24.8 °F 86% 29.91 in 10.0 mi WSW 13.8 mph - N/A   Overcast
11:35 AM 35.6 °F 22.5 °F 28.4 °F 75% 29.92 in 7.0 mi NW 29.9 mph 39.1 mph N/A   Overcast
11:55 AM 33.8 °F 20.5 °F 28.4 °F 81% 29.92 in 4.0 mi NW 27.6 mph 35.7 mph N/A Rain Light Rain
12:15 PM 33.8 °F 20.3 °F 28.4 °F 81% 29.92 in 4.0 mi NW 28.8 mph 36.8 mph N/A Rain Light Rain
12:35 PM 32.0 °F 18.1 °F 28.4 °F 87% 29.93 in 2.0 mi NW 27.6 mph 35.7 mph N/A Rain Light Rain
12:55 PM 32.0 °F 17.6 °F 26.6 °F 80% 29.93 in 1.0 mi NW 29.9 mph 39.1 mph N/A Rain Light Rain
1:15 PM 32.0 °F 16.5 °F 26.6 °F 80% 29.95 in 0.5 mi NW 35.7 mph 48.3 mph N/A   Overcast
1:35 PM 28.4 °F 11.6 °F 24.8 °F 86% 29.96 in 0.5 mi NW 35.7 mph 52.9 mph 0.03 in   Overcast
1:55 PM 28.4 °F 12.5 °F 23.0 °F 80% 29.98 in 0.5 mi NW 31.1 mph 46.0 mph 0.05 in   Overcast
2:15 PM 28.4 °F 13.3 °F 23.0 °F 80% 29.99 in 1.0 mi NW 27.6 mph 40.3 mph N/A   Overcast
2:35 PM 26.6 °F 10.8 °F 21.2 °F 80% 30.01 in 2.0 mi NW 27.6 mph 39.1 mph 0.01 in Rain Light Freezing Rain
2:55 PM 24.8 °F 7.3 °F 17.6 °F 74% 30.02 in 1.8 mi NW 32.2 mph 43.7 mph 0.01 in Rain Light Freezing Rain
3:15 PM 24.8 °F 6.8 °F 17.6 °F 74% 30.03 in 1.5 mi NW 34.5 mph 46.0 mph N/A Rain Light Freezing Rain
3:35 PM 24.8 °F 7.6 °F 17.6 °F 74% 30.04 in 4.0 mi NW 31.1 mph 38.0 mph N/A Rain Light Freezing Rain
3:55 PM 23.0 °F 6.6 °F 17.6 °F 80% 30.06 in 7.0 mi NW 25.3 mph 33.4 mph N/A Rain Light Freezing Rain
4:15 PM 23.0 °F 7.2 °F 17.6 °F 80% 30.07 in 10.0 mi NW 23.0 mph 32.2 mph N/A   Mostly Cloudy
4:35 PM 23.0 °F 6.9 °F 15.8 °F 74% 30.08 in 9.0 mi NW 24.2 mph 32.2 mph N/A   Partly Cloudy
4:55 PM 21.2 °F 3.9 °F 14.0 °F 74% 30.10 in 10.0 mi NW 26.5 mph 33.4 mph N/A   Clear
5:15 PM 19.4 °F 0.8 °F 12.2 °F 74% 30.11 in 10.0 mi NW 28.8 mph 34.5 mph N/A   Clear
5:35 PM 19.4 °F 3.6 °F 12.2 °F 74% 30.12 in 10.0 mi WNW 19.6 mph 31.1 mph N/A   Clear
5:55 PM 19.4 °F 3.2 °F 10.4 °F 68% 30.13 in 10.0 mi NW 20.7 mph 29.9 mph N/A   Clear
6:15 PM 17.6 °F 1.7 °F 10.4 °F 73% 30.14 in 10.0 mi WNW 18.4 mph 31.1 mph N/A   Clear
6:35 PM 17.6 °F 2.7 °F 10.4 °F 73% 30.15 in 10.0 mi WNW 16.1 mph 23.0 mph N/A   Mostly Cloudy
6:55 PM 17.6 °F 3.2 °F 10.4 °F 73% 30.16 in 10.0 mi WNW 15.0 mph 21.9 mph N/A   Overcast
7:15 PM 17.6 °F 3.7 °F 10.4 °F 73% 30.15 in 10.0 mi WNW 13.8 mph 18.4 mph N/A   Mostly Cloudy
7:35 PM 17.6 °F 5.7 °F 10.4 °F 73% 30.16 in 10.0 mi West 10.4 mph 19.6 mph N/A   Mostly Cloudy
7:55 PM 15.8 °F 4.2 °F 10.4 °F 79% 30.16 in 10.0 mi West 9.2 mph - N/A   Mostly Cloudy
8:15 PM 15.8 °F 5.1 °F 10.4 °F 79% 30.15 in 10.0 mi West 8.1 mph - N/A   Mostly Cloudy
8:35 PM 15.8 °F 5.1 °F 10.4 °F 79% 30.15 in 10.0 mi West 8.1 mph - N/A   Overcast
8:55 PM 15.8 °F 2.7 °F 10.4 °F 79% 30.15 in 10.0 mi WNW 11.5 mph - N/A   Overcast
9:15 PM 15.8 °F 2.1 °F 10.4 °F 79% 30.13 in 10.0 mi WNW 12.7 mph - N/A   Overcast
9:35 PM 15.8 °F 5.1 °F 10.4 °F 79% 30.13 in 10.0 mi WNW 8.1 mph - N/A   Mostly Cloudy
9:55 PM 15.8 °F 6.1 °F 10.4 °F 79% 30.13 in 10.0 mi WSW 6.9 mph - N/A   Overcast
10:15 PM 15.8 °F 6.1 °F 8.6 °F 73% 30.12 in 10.0 mi WSW 6.9 mph - N/A   Overcast
10:35 PM 15.8 °F 2.7 °F 10.4 °F 79% 30.12 in 10.0 mi WSW 11.5 mph - N/A   Overcast
10:55 PM 15.8 °F 3.4 °F 10.4 °F 79% 30.12 in 10.0 mi WSW 10.4 mph - N/A   Overcast
11:15 PM 15.8 °F 2.1 °F 10.4 °F 79% 30.11 in 10.0 mi SW 12.7 mph - N/A   Overcast
11:35 PM 17.6 °F 4.3 °F 12.2 °F 79% 30.11 in 10.0 mi WSW 12.7 mph - N/A   Overcast
11:55 PM 17.6 °F 7.3 °F 14.0 °F 86% 30.10 in 10.0 mi WSW 8.1 mph - N/A   Overcast